GSAT-10

Last updated on Tue Jul 01 2025 00:02:45 GMT+0000 (Coordinated Universal Time)

1 38779U 12051B 25181.59909054 -.00000165 00000+0 00000+0 0 9992 2 38779 0.0673 267.7014 0008278 189.4797 120.3866 1.00272263 46570
UTC large
Height (km)
Speed (km/s)
/
Latitude / Longitude
Inclination (degrees)
Orbital Period (minutes)
Azimuth
Elevation
Range (km)
Doppler Factor

Next 0 passes for location: London (51.5072 / 0.1276)

Sorry there are no passes over London.